[[{"header":{"parameterUnit":"m.s-1","parameterCategory":1,"la1":30.2991,"la2":30.254,"lo1":-89.0895,"lo2":-89.0444,"dy":0.0017,"dx":0.0017,"nx":28,"ny":28,"refTime":"2023-07-29T09:00:00:Z","depth":0,"parameterNumber":2,"parameterNumberName":"U-component_of_WINDS"},"data":[0,0,0,0,0,0,0,0,0,0,0,0,0,0,0,0,0,0,0,0,0,0,0,0,0,0,0,0,0,0,0,0,0,0,0,0,0,0,0,0,0,0,0,0,0,0,0,0,0,0,0,0,0,0,0,0,0,0,2.2782,2.2784,0,2.2918,2.2919,2.2921,2.2909,2.2906,2.2904,2.2902,2.3045,2.305,2.3056,0,0,0,0,0,0,0,0,0,0,0,0,0,2.2516,2.2521,2.2782,2.2784,2.2786,2.2917,2.2919,2.2921,2.2909,2.2906,2.2904,2.2901,2.3043,2.305,2.3057,0,0,0,0,0,0,0,0,0,0,0,0,0,2.2639,2.2522,2.2782,2.2795,2.2798,2.2917,2.2919,2.2922,2.2909,2.2906,2.2903,2.29,2.3041,2.3049,2.3057,2.3173,0,0,2.3084,2.3088,0,0,0,0,0,0,0,0,2.2632,2.2649,2.2792,2.2795,2.2798,2.2893,2.2877,2.3006,2.291,2.2867,2.2902,2.2899,2.2997,2.3009,2.3041,2.318,2.3186,2.3085,2.309,2.3093,2.3096,0,0,0,0,0,0,0,2.2624,2.2643,2.2836,2.2794,2.2798,2.2795,2.2809,2.2902,2.2948,2.2871,2.287,2.2886,2.2998,2.3033,2.3045,2.3188,2.3084,2.3092,2.3097,2.3101,2.3426,2.343,0,0,0,0,0,0,2.2612,2.2636,2.2832,2.284,2.2705,2.2803,2.2818,2.2866,2.2947,2.2956,2.2889,2.2885,2.302,2.3035,2.305,2.3189,2.3093,2.3101,2.3106,2.3423,2.3427,2.3431,0,0,0,0,0,0,2.2606,2.2629,2.2826,2.2738,2.2763,2.2811,2.2864,2.287,2.2905,2.2961,2.2969,2.2916,2.3018,2.3038,2.3142,2.3194,2.3105,2.3113,2.3419,2.3424,2.3429,2.3469,0,0,0,0,0,0,2.2598,2.2627,2.2671,2.2739,2.2768,2.2916,2.2867,2.2875,2.2919,2.2916,2.2988,2.2997,2.3017,2.3129,2.315,2.3204,2.312,2.3414,2.3421,2.3427,2.3464,2.3475,2.3485,0,0,0,0,0,2.2589,2.2679,2.2674,2.2697,2.2824,2.2919,2.2935,2.2955,2.2924,2.2968,2.3004,2.2995,2.3185,2.314,2.3164,2.3221,2.3411,2.3419,2.3427,2.3459,2.3473,2.3485,0,0,0,0,0,0,2.2618,2.2688,2.2683,2.2797,2.2852,2.2916,2.2974,2.297,2.3036,2.303,2.3053,2.3069,2.3174,2.3208,2.3157,2.3336,2.3294,2.3307,2.331,2.3324,2.3334,2.3324,2.3127,0,0,0,0,0,2.2637,2.2707,2.2765,2.2861,2.2888,2.2926,2.2968,2.2978,2.3037,2.306,2.3103,2.3161,2.3233,2.3281,2.335,2.3468,2.3483,2.3519,2.353,2.3539,2.355,2.3613,2.3629,2.3457,2.3457,2.3456,0,0,2.2678,2.2725,2.2769,2.2867,2.2911,2.2984,2.2946,2.3025,2.3079,2.3073,2.3173,2.3207,2.3272,2.3383,2.3434,2.3415,2.3601,2.3549,2.3555,2.3562,2.3623,2.3639,2.3653,2.3462,2.3461,2.346,0,0,2.279,2.2833,2.2916,2.296,2.3026,2.305,2.307,2.3135,2.3156,2.3257,2.3253,2.3318,2.3443,2.3489,2.3529,2.3656,2.365,2.3679,2.3735,2.3797,2.381,2.3822,2.3866,2.3882,2.3689,2.3689,2.3689,0,2.2834,2.2942,2.296,2.3039,2.3082,2.3077,2.3161,2.3204,2.3289,2.3319,2.3296,2.345,2.3495,2.3616,2.3646,2.3679,2.3702,2.367,2.3807,2.3819,2.3831,2.3873,2.389,2.3692,2.3692,2.3692,2.3691,0,2.2991,2.3067,2.3126,2.3206,2.3256,2.3338,2.3368,2.3416,2.3422,2.3449,2.3551,2.3603,2.3682,2.3712,2.372,2.3834,2.3819,2.3801,2.3759,2.385,2.389,2.3906,2.3696,2.3695,2.3695,2.3694,0,0,2.3126,2.3214,2.3235,2.3271,2.3342,2.3401,2.3482,2.3557,2.3598,2.3657,2.3725,2.3829,2.3812,2.3857,2.387,2.3924,2.4019,2.3899,2.39,2.3918,2.4147,2.4159,2.4178,2.4015,2.4019,2.4021,2.4141,0,2.3244,2.3386,2.3403,2.3529,2.3598,2.3594,2.3664,2.3716,2.3743,2.3806,2.3836,2.3909,2.3881,2.3908,2.3962,2.3996,2.4065,2.3988,2.4079,2.4082,2.4062,2.4199,2.4213,2.4324,2.4157,2.416,2.4162,0,2.3401,2.3462,2.3594,2.3654,2.3684,2.3746,2.3816,2.3877,2.3934,2.395,2.3999,2.4004,2.4088,2.4042,2.4157,2.4104,2.4143,2.4165,2.417,2.4179,2.4127,2.4211,2.436,2.4376,2.4187,2.4185,2.4183,0,2.3484,2.36,2.3693,2.3724,2.3797,2.384,2.3873,2.3927,2.3971,2.4033,2.4061,2.4133,2.4172,2.4227,2.425,2.4215,2.4364,2.4321,2.4379,2.4378,2.441,2.4408,2.4566,2.4437,2.4436,2.4436,2.4436,0,2.3614,2.3695,2.3731,2.3789,2.3879,2.3898,2.3987,2.4018,2.4066,2.413,2.4131,2.4191,2.4219,2.4284,2.4303,2.4394,2.4413,2.4428,2.4432,2.4427,2.4425,2.4452,2.4445,2.444,2.4439,2.4439,2.4438,0,2.3722,2.375,2.3851,2.3911,2.3927,2.3991,2.4042,2.4098,2.4123,2.4204,2.4224,2.4264,2.434,2.4369,2.4462,2.4475,2.458,2.4579,2.456,2.4561,2.4617,2.4611,2.4798,2.4823,2.4677,2.4679,2.468,0,2.3803,2.3864,2.393,2.3971,2.4004,2.4072,2.4116,2.4138,2.4183,2.4253,2.43,2.4375,2.4435,2.4556,2.4595,2.4665,2.4665,2.4725,2.4676,2.4668,2.4664,2.466,2.4666,2.4735,2.4736,2.4737,2.4738,0,2.3942,2.3952,2.4015,2.4082,2.4134,2.4189,2.4242,2.4276,2.4305,2.4357,2.4433,2.448,2.4573,2.4647,2.4719,2.4753,2.4751,2.4753,2.477,2.4766,2.4752,2.4759,2.4584,2.4749,2.4748,2.4747,2.4747,2.4746,2.4039,2.4092,2.4146,2.4215,2.4257,2.4306,2.436,2.4391,2.4455,2.4531,2.454,2.4621,2.4677,2.4773,2.481,2.4874,2.4858,2.4883,2.4889,2.4895,2.4898,2.4742,2.4887,2.4887,2.4887,2.4887,2.4886,0,2.4177,2.421,2.4274,2.4347,2.4401,2.4392,2.445,2.4496,2.4567,2.4618,2.4677,2.4764,2.4835,2.4878,2.495,2.4993,2.4993,2.5011,2.5008,2.5015,2.4909,2.4886,2.5009,2.5009,2.5009,2.5009,2.5009,2.5009,2.4255,2.4345,2.4361,2.4471,2.4505,2.4583,2.4617,2.4662,2.4702,2.4798,2.4856,2.4883,2.4931,2.5006,2.5071,2.5081,2.5107,2.5126,2.5136,2.5036,2.5023,2.5011,2.499,2.5132,2.5132,2.5236,2.5237,2.5238]},{"header":{"parameterUnit":"m.s-1","parameterCategory":1,"la1":30.2991,"la2":30.254,"lo1":-89.0895,"lo2":-89.0444,"dy":0.0017,"dx":0.0017,"nx":28,"ny":28,"refTime":"2023-07-29T09:00:00:Z","depth":0,"parameterNumber":3,"parameterNumberName":"V-component_of_WINDS"},"data":[0,0,0,0,0,0,0,0,0,0,0,0,0,0,0,0,0,0,0,0,0,0,0,0,0,0,0,0,0,0,0,0,0,0,0,0,0,0,0,0,0,0,0,0,0,0,0,0,0,0,0,0,0,0,0,0,0,0,4.0896,4.0896,0,4.0922,4.0922,4.0922,4.086,4.0858,4.0856,4.0855,4.0877,4.088,4.0882,0,0,0,0,0,0,0,0,0,0,0,0,0,4.0789,4.0792,4.0896,4.0896,4.0897,4.0921,4.0922,4.0922,4.0861,4.0858,4.0856,4.0854,4.0876,4.0879,4.0882,0,0,0,0,0,0,0,0,0,0,0,0,0,4.0827,4.0792,4.0896,4.0869,4.0867,4.0921,4.0922,4.0922,4.0861,4.0858,4.0855,4.0853,4.0876,4.0879,4.0883,4.0963,0,0,4.0894,4.0895,0,0,0,0,0,0,0,0,4.0825,4.0831,4.0873,4.0871,4.0869,4.0885,4.0892,4.0936,4.0862,4.0863,4.0854,4.0851,4.0882,4.0885,4.0896,4.0965,4.0965,4.0894,4.0896,4.0898,4.0899,0,0,0,0,0,0,0,4.0823,4.083,4.0906,4.0873,4.0871,4.0854,4.0856,4.09,4.0888,4.0863,4.0858,4.0862,4.088,4.0893,4.0896,4.0966,4.0894,4.0897,4.0899,4.0901,4.11,4.1103,0,0,0,0,0,0,4.0824,4.0828,4.0905,4.0907,4.0839,4.0858,4.0861,4.0882,4.0888,4.0886,4.0865,4.086,4.0888,4.0892,4.0897,4.099,4.0898,4.0901,4.0903,4.1097,4.1101,4.1104,0,0,0,0,0,0,4.0822,4.0831,4.0904,4.0866,4.0874,4.0863,4.0888,4.0885,4.0897,4.089,4.0887,4.088,4.0886,4.0891,4.0947,4.099,4.0903,4.0906,4.1093,4.1098,4.1102,4.1179,0,0,0,0,0,0,4.0819,4.0831,4.0863,4.0867,4.0876,4.0956,4.0891,4.0887,4.0904,4.0897,4.0903,4.0901,4.0884,4.0942,4.0951,4.0994,4.0909,4.1089,4.1095,4.1101,4.1173,4.1186,4.1198,0,0,0,0,0,4.0816,4.0883,4.0865,4.0874,4.0916,4.0958,4.0963,4.0943,4.0908,4.0938,4.0933,4.0901,4.0984,4.0948,4.0958,4.1002,4.1086,4.1094,4.11,4.1167,4.1184,4.1197,0,0,0,0,0,0,4.0883,4.0883,4.0863,4.0934,4.0947,4.0948,4.0986,4.0961,4.0983,4.0976,4.0948,4.095,4.1011,4.1012,4.0972,4.108,4.1029,4.1038,4.1077,4.1092,4.1104,4.1102,4.0912,0,0,0,0,0,4.0907,4.0942,4.094,4.1003,4.101,4.0998,4.1015,4.0999,4.101,4.1015,4.1014,4.1025,4.1053,4.1073,4.1099,4.1173,4.1172,4.1208,4.122,4.123,4.1238,4.1276,4.1292,4.1127,4.1127,4.1127,0,0,4.0955,4.0959,4.0983,4.1017,4.1024,4.106,4.1002,4.1043,4.1069,4.102,4.1073,4.1073,4.1083,4.1148,4.1177,4.1151,4.1284,4.1239,4.1248,4.125,4.1285,4.1301,4.1314,4.1132,4.1131,4.113,0,0,4.1061,4.1069,4.1122,4.1131,4.1143,4.1134,4.1147,4.1152,4.115,4.1202,4.1166,4.1196,4.1246,4.1255,4.1266,4.1375,4.1345,4.1384,4.1447,4.1484,4.1497,4.1509,4.1546,4.156,4.1392,4.1392,4.1392,0,4.1119,4.1174,4.1152,4.1195,4.121,4.1168,4.122,4.123,4.125,4.1261,4.1232,4.1293,4.1298,4.1363,4.139,4.14,4.1413,4.1383,4.1498,4.1509,4.1519,4.1554,4.1569,4.1396,4.1396,4.1396,4.1395,0,4.1243,4.1281,4.1322,4.1344,4.1363,4.1411,4.1395,4.1417,4.1398,4.1391,4.1444,4.1448,4.1474,4.1488,4.147,4.1551,4.1535,4.1502,4.1451,4.154,4.1572,4.1586,4.1403,4.1401,4.14,4.1399,0,0,4.1393,4.1402,4.1417,4.1425,4.1436,4.1464,4.1509,4.1535,4.1554,4.1569,4.1604,4.1648,4.1617,4.163,4.1612,4.1645,4.1729,4.1609,4.1608,4.163,4.1817,4.1841,4.1857,4.171,4.1713,4.1715,4.1816,0,4.1497,4.1576,4.1557,4.1634,4.1667,4.1628,4.1666,4.1676,4.1671,4.1698,4.1691,4.1722,4.1681,4.1688,4.1719,4.1713,4.1767,4.1705,4.1742,4.1743,4.174,4.1874,4.19,4.1995,4.1829,4.1831,4.1833,0,4.163,4.165,4.1731,4.1735,4.1748,4.1784,4.1805,4.1831,4.1841,4.1835,4.1849,4.1824,4.1867,4.1816,4.1873,4.1832,4.1846,4.1845,4.1848,4.185,4.1793,4.1879,4.2025,4.2039,4.1853,4.1851,4.185,0,4.1729,4.1777,4.1831,4.184,4.1846,4.1872,4.1875,4.1882,4.1898,4.1917,4.1927,4.1949,4.1962,4.1979,4.1961,4.1926,4.2021,4.1968,4.2016,4.2016,4.2037,4.2036,4.2187,4.2048,4.2048,4.2047,4.2047,0,4.1847,4.1898,4.1876,4.1909,4.1964,4.1941,4.1995,4.1994,4.2,4.2031,4.1998,4.2028,4.2003,4.203,4.2016,4.2065,4.2071,4.2066,4.2061,4.2068,4.2069,4.2076,4.2069,4.2051,4.205,4.205,4.2049,0,4.1968,4.1956,4.2012,4.2013,4.2014,4.2054,4.2055,4.2084,4.2077,4.2116,4.2124,4.2112,4.2142,4.2126,4.2156,4.2147,4.221,4.2197,4.2207,4.2203,4.2251,4.2247,4.2412,4.2431,4.2281,4.2282,4.2283,0,4.2044,4.2081,4.2087,4.2105,4.2111,4.2142,4.2159,4.2137,4.2155,4.2169,4.2197,4.2224,4.2244,4.2294,4.2287,4.231,4.2296,4.2353,4.2299,4.2305,4.2296,4.2294,4.2297,4.2363,4.2365,4.2366,4.2367,0,4.2179,4.217,4.2196,4.2219,4.224,4.2257,4.2271,4.2288,4.2267,4.2289,4.2319,4.2335,4.2367,4.2393,4.2413,4.2415,4.2388,4.2384,4.2396,4.2403,4.2407,4.2405,4.2235,4.238,4.2379,4.2378,4.2377,4.2377,4.2278,4.2309,4.2318,4.2347,4.2355,4.2369,4.2397,4.2393,4.2418,4.2442,4.2428,4.2463,4.2471,4.2494,4.25,4.2526,4.2504,4.2522,4.2526,4.253,4.2536,4.2404,4.253,4.253,4.2529,4.2529,4.2529,0,4.241,4.2414,4.2441,4.2462,4.2484,4.2457,4.2471,4.2491,4.2523,4.2533,4.2554,4.2588,4.2614,4.2609,4.2632,4.2654,4.2642,4.2661,4.2659,4.2659,4.2556,4.2543,4.2671,4.267,4.267,4.267,4.267,4.267,4.2482,4.2533,4.2526,4.258,4.2582,4.2618,4.2628,4.264,4.2647,4.2687,4.2709,4.2706,4.2709,4.2732,4.2754,4.2752,4.2761,4.2785,4.2778,4.2681,4.2667,4.2653,4.2641,4.2787,4.2787,4.2879,4.288,4.288]}]]